"TOA5","MOW","CPU:UNC_MeetingWaters","DataHourly"
"TIMESTAMP","SondeTempC","SpCond","DOSat","DOmg","pH","Turb","BattVolt_Min"
"TS","","","","","","",""
"","Smp","Smp","Smp","Smp","Smp","Smp","Min"
"2004-08-01 00:00:00",23.6599998474,0.00200000009499,94.5,8.01000022888,7.96000003815,43.5999984741,12.5200004578
"2004-08-01 01:00:00",23.4599990845,0.00200000009499,94.8000030518,8.06999969482,8.0,54.7000007629,12.5100002289
"2004-08-01 02:00:00",23.4899997711,0.00200000009499,95.5999984741,8.11999988556,7.75,57.9000015259,12.4899997711
"2004-08-01 03:00:00",23.4200000763,0.00200000009499,95.0999984741,8.09000015259,7.84000015259,40.0999984741,12.470000267
"2004-08-01 04:00:00",23.3700008392,0.00200000009499,94.8000030518,8.07999992371,7.84999990463,27.3999996185,12.4600000381
"2004-08-01 05:00:00",23.2700004578,0.00200000009499,93.8000030518,8.0,6.21000003815,21.8999996185,12.4499998093
"2004-08-01 06:00:00",23.2999992371,0.00200000009499,94.6999969482,8.06999969482,5.96000003815,18.5,12.4399995804
"2004-08-01 07:00:00",23.3500003815,0.00200000009499,95.0,8.10000038147,5.82000017166,17.3999996185,12.4200000763
"2004-08-01 08:00:00",23.4099998474,0.00200000009499,95.5,8.13000011444,5.84999990463,15.6000003815,12.4099998474
"2004-08-01 09:00:00",23.6499996185,0.00200000009499,95.3000030518,8.07999992371,8.26000022888,14.6999998093,12.5900001526
"2004-08-01 10:00:00",23.8199996948,0.00200000009499,96.5,8.14999961853,8.14000034332,13.5,12.6300001144
"2004-08-01 11:00:00",24.1800003052,0.00200000009499,96.0,8.06000041962,8.30000019073,13.5,12.8400001526
"2004-08-01 12:00:00",25.5699996948,0.00200000009499,98.0,8.01000022888,8.27000045776,13.6999998093,13.0
"2004-08-01 13:00:00",26.5400009155,0.0010000000475,103.400001526,8.31000041962,4.84999990463,12.3999996185,12.9600000381
"2004-08-01 14:00:00",25.9400005341,0.0,105.599998474,8.57999992371,4.17000007629,11.6999998093,12.7700004578
"2004-08-01 15:00:00",25.9899997711,0.0,106.099998474,8.60999965668,4.61999988556,11.1000003815,12.9499998093
"2004-08-01 16:00:00",25.9300003052,0.0,105.099998474,8.52999973297,8.25,10.8000001907,12.7700004578
"2004-08-01 17:00:00",25.4500007629,0.0,103.0,8.43999958038,5.05000019073,10.3999996185,12.6800003052
"2004-08-01 18:00:00",25.3500003815,0.0,102.300003052,8.39999961853,5.11999988556,10.3000001907,12.6599998474
"2004-08-01 19:00:00",25.4200000763,0.0,105.800003052,8.67000007629,5.34999990463,11.3999996185,12.6000003815
"2004-08-01 20:00:00",25.0900001526,0.0,99.5999984741,8.22000026703,5.38999986649,10.3999996185,12.5799999237
"2004-08-01 21:00:00",24.5699996948,0.0,98.5999984741,8.21000003815,5.76000022888,11.1000003815,12.5600004196
"2004-08-01 22:00:00",24.25,0.0,97.1999969482,8.14000034332,6.07999992371,12.8999996185,12.5500001907
"2004-08-01 23:00:00",24.1700000763,0.0,95.5999984741,8.02000045776,6.32999992371,15.0,12.529999733
"2004-08-02 00:00:00",23.9799995422,0.0,94.4000015259,7.94999980927,8.56999969482,13.1000003815,12.529999733
"2004-08-02 01:00:00",23.6599998474,0.0,93.8000030518,7.94999980927,6.25,12.6999998093,12.5100002289
"2004-08-02 02:00:00",23.2600002289,0.0,95.3000030518,8.14000034332,6.42000007629,11.6000003815,12.5
"2004-08-02 03:00:00",23.1299991608,0.0,91.0,7.78000020981,6.53999996185,11.6999998093,12.4799995422
"2004-08-02 04:00:00",23.1000003815,0.0,99.1999969482,8.48999977112,6.57999992371,12.8999996185,12.470000267
"2004-08-02 05:00:00",23.2900009155,0.0,98.3000030518,8.39000034332,6.61000013351,12.1999998093,12.4499998093
"2004-08-02 06:00:00",23.2900009155,0.0,93.3000030518,7.96000003815,6.55999994278,11.5,12.4399995804
"2004-08-02 07:00:00",23.3099994659,0.0,92.8000030518,7.90999984741,6.65000009537,12.1000003815,12.4200000763
"2004-08-02 08:00:00",23.4400005341,0.0,92.1999969482,7.84000015259,6.92999982834,11.6999998093,12.4200000763
"2004-08-02 09:00:00",23.5,0.0,92.4000015259,7.84999990463,6.98000001907,11.3999996185,12.3999996185
"2004-08-02 10:00:00",23.5599994659,0.0,91.5999984741,7.78000020981,8.53999996185,11.1000003815,12.4799995422
"2004-08-02 11:00:00",23.3999996185,0.250999987125,94.5,8.03999996185,8.01000022888,35.0,12.970000267
"2004-08-02 12:00:00",24.3600006104,0.00200000009499,95.4000015259,7.98000001907,8.06000041962,56.4000015259,12.7899999619
"2004-08-02 13:00:00",24.3400001526,0.326000005007,95.0,7.94000005722,7.94999980927,99.0999984741,12.8999996185
"2004-08-02 14:00:00",24.0499992371,0.321999996901,95.0999984741,7.98999977112,7.90000009537,50.9000015259,12.8999996185
"2004-08-02 15:00:00",24.4899997711,0.179000005126,95.6999969482,7.98000001907,7.92000007629,41.5999984741,12.9499998093
"2004-08-02 16:00:00",25.0100002289,0.0010000000475,93.4000015259,7.71000003815,7.88000011444,42.4000015259,12.9799995422
"2004-08-02 17:00:00",24.8999996185,0.314999997616,93.5999984741,7.73999977112,7.88999986649,131.399993896,12.6700000763
"2004-08-02 18:00:00",24.8099994659,0.188999995589,92.4000015259,7.65999984741,7.90000009537,112.0,12.6000003815
"2004-08-02 19:00:00",24.8600006104,0.279000014067,92.3000030518,7.63999986649,7.80999994278,262.600006104,12.5799999237
"2004-08-02 20:00:00",24.8899993896,0.137999996543,87.4000015259,7.23000001907,7.73999977112,250.100006104,12.5600004196
"2004-08-02 21:00:00",24.7099990845,0.00400000018999,83.8000030518,6.96000003815,7.61999988556,146.699996948,12.5500001907
"2004-08-02 22:00:00",24.6100006104,0.101999998093,82.8000030518,6.88999986649,7.59000015259,118.599998474,12.529999733
"2004-08-02 23:00:00",24.4899997711,0.101999998093,83.1999969482,6.94000005722,7.59000015259,82.4000015259,12.529999733
"2004-08-03 00:00:00",24.2900009155,0.00200000009499,81.6999969482,6.84000015259,7.59000015259,54.7999992371,12.5100002289
"2004-08-03 01:00:00",24.1599998474,0.11400000006,82.0999984741,6.88999986649,7.59999990463,48.0999984741,12.5
"2004-08-03 02:00:00",24.0300006866,0.00400000018999,81.5999984741,6.86999988556,7.63000011444,28.3999996185,12.4899997711
"2004-08-03 03:00:00",23.9300003052,0.0010000000475,80.9000015259,6.82000017166,7.61999988556,22.5,12.470000267
"2004-08-03 04:00:00",23.8400001526,0.0010000000475,81.0,6.84000015259,7.61999988556,21.8999996185,12.4499998093
"2004-08-03 05:00:00",23.7600002289,0.0010000000475,79.8000030518,6.75,7.61999988556,22.3999996185,12.4300003052
"2004-08-03 06:00:00",23.6900005341,0.0010000000475,79.4000015259,6.71999979019,7.61999988556,18.0,12.4099998474
"2004-08-03 07:00:00",23.6599998474,0.00200000009499,80.0999984741,6.78999996185,7.65000009537,14.1999998093,12.3999996185
"2004-08-03 08:00:00",23.6700000763,0.175999999046,81.8000030518,6.92000007629,7.73999977112,15.0,12.3999996185
"2004-08-03 09:00:00",23.8299999237,0.372999995947,83.5,7.03999996185,7.84000015259,64.4000015259,12.4600000381
"2004-08-03 10:00:00",23.9400005341,0.158000007272,82.5,6.94999980927,7.73999977112,101.900001526,12.7700004578
"2004-08-03 11:00:00",24.0100002289,0.303999990225,82.0999984741,6.90999984741,7.69000005722,78.4000015259,12.779999733
"2004-08-03 12:00:00",24.2600002289,0.167999997735,82.8000030518,6.94000005722,7.73000001907,119.699996948,13.0500001907
"2004-08-03 13:00:00",24.9799995422,0.00400000018999,83.3000030518,6.88000011444,7.73000001907,71.3000030518,13.0200004578
"2004-08-03 14:00:00",25.2299995422,0.148000001907,84.0999984741,6.92000007629,7.76000022888,112.599998474,13.0
"2004-08-03 15:00:00",25.5,0.0010000000475,84.0999984741,6.88000011444,7.82999992371,135.800003052,12.970000267
"2004-08-03 16:00:00",25.3099994659,0.291000008583,84.0999984741,6.90999984741,7.78999996185,141.800003052,12.9099998474
"2004-08-03 17:00:00",25.2800006866,0.157000005245,84.6999969482,6.96000003815,7.84999990463,37.4000015259,12.9200000763
"2004-08-03 18:00:00",25.1900005341,0.149000003934,83.8000030518,6.90000009537,7.84000015259,17.0,12.6499996185
"2004-08-03 19:00:00",25.1499996185,0.00200000009499,81.6999969482,6.73000001907,7.76999998093,13.5,12.6099996567
"2004-08-03 20:00:00",25.0599994659,0.0010000000475,80.5,6.65000009537,7.73999977112,11.8000001907,12.5799999237
"2004-08-03 21:00:00",24.8500003815,0.0010000000475,80.4000015259,6.67000007629,7.78000020981,11.1000003815,12.5699996948
"2004-08-03 22:00:00",24.5799999237,0.0010000000475,79.9000015259,6.65000009537,7.82000017166,12.0,12.5500001907
"2004-08-03 23:00:00",24.3700008392,0.0010000000475,79.4000015259,6.63999986649,7.84000015259,13.6000003815,12.5399999619
"2004-08-04 00:00:00",24.0400009155,0.0010000000475,78.8000030518,6.63000011444,7.84999990463,13.3000001907,12.5200004578
"2004-08-04 01:00:00",23.8199996948,0.0010000000475,78.5999984741,6.63999986649,7.84999990463,13.3999996185,12.5100002289
"2004-08-04 02:00:00",23.6100006104,0.0010000000475,78.3000030518,6.63999986649,7.82999992371,14.5,12.4899997711
"2004-08-04 03:00:00",23.4200000763,0.0010000000475,77.0999984741,6.55999994278,7.86000013351,27.5,12.4799995422
"2004-08-04 04:00:00",23.4300003052,0.00200000009499,77.5,6.59000015259,7.82000017166,12.1000003815,12.470000267
"2004-08-04 05:00:00",23.2700004578,0.00200000009499,76.8000030518,6.55999994278,7.80999994278,10.6999998093,12.4499998093
"2004-08-04 06:00:00",23.1499996185,0.00200000009499,76.5,6.55000019073,7.80999994278,9.60000038147,12.4300003052
"2004-08-04 07:00:00",23.0499992371,0.00200000009499,76.1999969482,6.53000020981,7.82999992371,9.19999980927,12.4099998474
"2004-08-04 08:00:00",22.9899997711,0.00200000009499,76.0,6.51999998093,7.86000013351,9.60000038147,12.3999996185
"2004-08-04 09:00:00",23.1700000763,0.00200000009499,76.4000015259,6.53000020981,7.88000011444,8.89999961853,12.470000267
"2004-08-04 10:00:00",23.4599990845,0.00200000009499,76.4000015259,6.5,7.90999984741,8.10000038147,13.1400003433
"2004-08-04 11:00:00",23.9899997711,0.0010000000475,77.1999969482,6.5,7.92999982834,9.60000038147,13.029999733
"2004-08-04 12:00:00",24.7700004578,0.0010000000475,79.1999969482,6.57000017166,7.94000005722,16.8999996185,12.970000267
"2004-08-04 13:00:00",25.0400009155,0.0,83.4000015259,6.88999986649,7.96000003815,11.3000001907,12.9399995804
"2004-08-04 14:00:00",25.6100006104,0.0,86.5999984741,7.07999992371,7.96000003815,8.60000038147,12.9300003052
"2004-08-04 15:00:00",25.6900005341,0.0,86.4000015259,7.05000019073,7.92999982834,7.69999980927,12.8999996185
"2004-08-04 16:00:00",25.75,0.0,86.0,7.01000022888,7.92000007629,7.5,12.8900003433
"2004-08-04 17:00:00",25.75,0.0,84.4000015259,6.88000011444,7.92000007629,7.19999980927,12.8800001144
"2004-08-04 18:00:00",25.5400009155,0.0,82.9000015259,6.78000020981,7.92999982834,6.5,12.6700000763
"2004-08-04 19:00:00",25.3799991608,0.0,81.4000015259,6.67999982834,7.92999982834,6.19999980927,12.6000003815
"2004-08-04 20:00:00",25.2000007629,0.0,79.1999969482,6.51999998093,7.90999984741,8.80000019073,12.5799999237
"2004-08-04 21:00:00",24.9400005341,0.0,77.3000030518,6.40000009537,7.90999984741,6.40000009537,12.5699996948
"2004-08-04 22:00:00",24.6499996185,0.0,72.5,6.03000020981,7.90999984741,8.80000019073,12.5500001907
"2004-08-04 23:00:00",24.5,0.0,73.8000030518,6.15000009537,7.90000009537,11.0,12.529999733
"2004-08-05 00:00:00",24.2399997711,0.0,72.5,6.07999992371,7.86999988556,8.80000019073,12.529999733
"2004-08-05 01:00:00",24.0900001526,0.0,71.8000030518,6.03000020981,7.82999992371,7.90000009537,12.5100002289
"2004-08-05 02:00:00",23.8400001526,0.0,71.0999984741,6.01000022888,7.84000015259,11.3000001907,12.5
"2004-08-05 03:00:00",23.8099994659,0.0,71.0999984741,6.01000022888,7.86000013351,10.6999998093,12.4899997711
"2004-08-05 04:00:00",23.7600002289,0.0,71.4000015259,6.03999996185,7.84000015259,8.19999980927,12.470000267
"2004-08-05 05:00:00",23.6900005341,0.0,71.0,6.01000022888,7.84000015259,6.80000019073,12.4499998093
"2004-08-05 06:00:00",23.5599994659,0.0,70.8000030518,6.01000022888,7.84000015259,7.09999990463,12.4399995804
"2004-08-05 07:00:00",23.4599990845,0.0,70.5,6.0,7.84999990463,8.39999961853,12.4200000763
"2004-08-05 08:00:00",23.5200004578,0.0,70.5,5.98999977112,7.88000011444,7.19999980927,12.4200000763
"2004-08-05 09:00:00",23.6800003052,0.0010000000475,70.3000030518,5.94999980927,7.88999986649,6.59999990463,12.6000003815
"2004-08-05 10:00:00",24.0,0.0010000000475,70.0,5.88999986649,7.90000009537,5.40000009537,13.1000003815
"2004-08-05 11:00:00",24.2700004578,0.0,71.1999969482,5.96000003815,7.90000009537,6.5,13.029999733
"2004-08-05 12:00:00",25.2900009155,0.0,76.0999984741,6.26000022888,8.14999961853,11.0,12.970000267
"2004-08-05 13:00:00",25.2700004578,0.0,77.3000030518,6.34999990463,7.98999977112,8.10000038147,12.9600000381
"2004-08-05 14:00:00",25.9099998474,0.0,84.5999984741,6.88000011444,8.25,5.40000009537,12.9499998093
"2004-08-05 15:00:00",25.8600006104,0.0,78.8000030518,6.40999984741,7.30000019073,4.90000009537,12.9499998093
"2004-08-05 16:00:00",25.7900009155,0.0,79.5999984741,6.48999977112,7.0,4.40000009537,12.720000267
"2004-08-05 17:00:00",25.6700000763,0.0,78.1999969482,6.38000011444,6.11999988556,4.5,12.7399997711
"2004-08-05 18:00:00",25.4200000763,0.0,78.4000015259,6.42999982834,5.09999990463,4.69999980927,12.6499996185
"2004-08-05 19:00:00",25.1399993896,0.0,76.6999969482,6.32000017166,5.17999982834,5.30000019073,12.5900001526
"2004-08-05 20:00:00",24.6800003052,0.0,75.9000015259,6.30999994278,6.11000013351,6.0,12.5799999237
"2004-08-05 21:00:00",25.3899993896,0.166999995708,77.8000030518,6.38000011444,7.69999980927,143.899993896,12.5600004196
"2004-08-05 22:00:00",24.5,0.0900000035763,75.6999969482,6.30999994278,7.59999990463,283.299987793,12.5399999619
"2004-08-05 23:00:00",23.9799995422,0.108999997377,70.9000015259,5.96999979019,7.46999979019,115.599998474,12.5200004578
"2004-08-06 00:00:00",23.5699996948,0.123000003397,68.5,5.80999994278,7.44000005722,80.5999984741,12.5
"2004-08-06 01:00:00",23.1800003052,0.0810000002384,67.3000030518,5.75,7.44999980927,86.0,12.4899997711
"2004-08-06 02:00:00",22.8099994659,0.0750000029802,66.0,5.67999982834,7.48999977112,61.5999984741,12.470000267
"2004-08-06 03:00:00",22.5,0.00400000018999,65.0,5.63000011444,7.53000020981,58.4000015259,12.4600000381
"2004-08-06 04:00:00",22.1499996185,0.00300000002608,63.7000007629,5.55000019073,7.59000015259,47.5,12.4399995804
"2004-08-06 05:00:00",21.6800003052,0.00200000009499,64.0999984741,5.63999986649,7.63000011444,41.5,12.4200000763
"2004-08-06 06:00:00",21.7199993134,0.00400000018999,64.3000030518,5.65000009537,7.65999984741,37.5999984741,12.4099998474
"2004-08-06 07:00:00",21.2800006866,0.00300000002608,62.7999992371,5.57000017166,7.69999980927,30.6000003815,12.3800001144
"2004-08-06 08:00:00",20.8600006104,0.00200000009499,63.0,5.63000011444,7.73999977112,30.0,12.3599996567
"2004-08-06 09:00:00",20.5200004578,0.00200000009499,63.5,5.71000003815,7.78000020981,34.7000007629,12.5799999237
"2004-08-06 10:00:00",20.4099998474,0.00200000009499,63.9000015259,5.76000022888,7.82999992371,24.7000007629,13.2399997711
"2004-08-06 11:00:00",20.2299995422,0.0010000000475,65.5,5.92999982834,7.86999988556,17.2999992371,13.1700000763
"2004-08-06 12:00:00",21.9899997711,0.0010000000475,66.3000030518,5.80000019073,7.98999977112,10.1999998093,13.1199998856
"2004-08-06 13:00:00",21.5,0.0010000000475,66.5,5.86999988556,8.06000041962,10.1000003815,13.1099996567
"2004-08-06 14:00:00",22.5200004578,0.0,66.8000030518,5.78000020981,7.01000022888,12.8999996185,13.1000003815
"2004-08-06 15:00:00",22.2700004578,0.0,72.0,6.26000022888,6.61000013351,17.6000003815,12.9799995422
"2004-08-06 16:00:00",22.4300003052,0.0,81.0,7.03000020981,4.76999998093,24.3999996185,13.0900001526
"2004-08-06 17:00:00",21.7600002289,0.0,73.3000030518,6.44000005722,7.96000003815,36.2000007629,13.0699996948
"2004-08-06 18:00:00",21.3799991608,0.0,70.5,6.23999977112,8.18000030518,41.5999984741,12.6300001144
"2004-08-06 19:00:00",20.6800003052,0.0,68.1999969482,6.11999988556,7.76999998093,35.5,12.5900001526
"2004-08-06 20:00:00",19.1299991608,0.0,71.1999969482,6.59000015259,7.11000013351,27.5,12.5699996948
"2004-08-06 21:00:00",17.7199993134,0.0,67.3000030518,6.40999984741,7.53999996185,23.0,12.5500001907
"2004-08-06 22:00:00",17.1299991608,0.0,64.3000030518,6.19999980927,7.51999998093,16.5,12.5200004578
"2004-08-06 23:00:00",16.9300003052,0.0,61.9000015259,5.98999977112,7.5,13.6000003815,12.5
"2004-08-07 00:00:00",17.1599998474,0.0,63.0999984741,6.07999992371,7.69999980927,11.8999996185,12.4799995422
"2004-08-07 01:00:00",16.4200000763,0.0,69.0,6.75,7.63999986649,10.1000003815,12.4600000381
"2004-08-07 02:00:00",15.7899999619,0.0,73.3000030518,7.26000022888,7.65999984741,9.69999980927,12.4499998093
"2004-08-07 03:00:00",15.1700000763,0.0,76.9000015259,7.73000001907,7.67000007629,8.5,12.4399995804
"2004-08-07 04:00:00",14.9399995804,0.0,77.6999969482,7.84999990463,7.65999984741,6.69999980927,12.4200000763
"2004-08-07 05:00:00",15.0900001526,0.0,80.9000015259,8.14999961853,7.57000017166,5.59999990463,12.3900003433
"2004-08-07 06:00:00",14.9600000381,0.0,74.6999969482,7.53999996185,7.59999990463,4.80000019073,12.3699998856
"2004-08-07 07:00:00",14.2399997711,0.0,67.1999969482,6.88999986649,7.73000001907,4.59999990463,12.3299999237
"2004-08-07 08:00:00",14.7299995422,0.0,62.2999992371,6.32000017166,7.73000001907,5.09999990463,12.3100004196
"2004-08-07 09:00:00",16.0699996948,0.0,58.0,5.71999979019,7.61000013351,5.30000019073,12.3199996948
"2004-08-07 10:00:00",18.8799991608,0.0,55.5999984741,5.17000007629,7.78000020981,5.0,13.0699996948
"2004-08-07 11:00:00",19.1200008392,0.0,56.7999992371,5.26000022888,7.71999979019,4.90000009537,13.220000267
"2004-08-07 12:00:00",23.3299999237,0.0,65.4000015259,5.57000017166,6.19999980927,6.30000019073,13.1199998856
"2004-08-07 13:00:00",23.1299991608,0.0,81.4000015259,6.96000003815,4.40999984741,7.5,13.0900001526
"2004-08-07 14:00:00",24.0300006866,0.0,84.9000015259,7.13999986649,3.84999990463,7.30000019073,13.0799999237
"2004-08-07 15:00:00",24.7199993134,0.0,88.0,7.30999994278,3.22000002861,6.5,13.0399999619
"2004-08-07 16:00:00",24.7900009155,0.0,92.0999984741,7.63999986649,2.41000008583,5.19999980927,13.0100002289
"2004-08-07 17:00:00",21.3099994659,0.244000002742,93.5999984741,8.28999996185,8.07999992371,9.69999980927,12.7700004578
"2004-08-07 18:00:00",20.8600006104,0.00400000018999,91.6999969482,8.19999980927,8.06000041962,6.90000009537,12.6400003433
"2004-08-07 19:00:00",20.2299995422,0.00300000002608,90.8000030518,8.22000026703,7.53000020981,5.30000019073,12.6099996567
"2004-08-07 20:00:00",19.1299991608,0.00300000002608,86.9000015259,8.03999996185,7.53999996185,4.59999990463,12.5799999237
"2004-08-07 21:00:00",18.7399997711,0.00200000009499,83.0,7.73999977112,7.82999992371,4.69999980927,12.5600004196
"2004-08-07 22:00:00",18.2099990845,0.00200000009499,78.9000015259,7.44000005722,7.78000020981,4.59999990463,12.5399999619
"2004-08-07 23:00:00",17.6399993896,0.00200000009499,74.5,7.09999990463,7.80000019073,4.40000009537,12.5200004578
"2004-08-08 00:00:00",18.1000003815,0.00200000009499,70.3000030518,6.63999986649,7.28999996185,4.09999990463,12.5
"2004-08-08 01:00:00",17.0400009155,0.00200000009499,66.0,6.36999988556,7.90000009537,3.79999995232,12.4799995422
"2004-08-08 02:00:00",16.9899997711,0.00200000009499,63.5,6.13999986649,8.0,3.70000004768,12.470000267
"2004-08-08 03:00:00",16.8299999237,0.00200000009499,60.7000007629,5.88000011444,8.02000045776,8.60000038147,12.4600000381
"2004-08-08 04:00:00",16.6599998474,0.00200000009499,57.7999992371,5.63000011444,7.98999977112,4.30000019073,12.4399995804
"2004-08-08 05:00:00",16.2199993134,0.00200000009499,56.0999984741,5.51999998093,7.98000001907,4.69999980927,12.4300003052
"2004-08-08 06:00:00",16.6700000763,0.00200000009499,56.4000015259,5.48999977112,7.92999982834,4.19999980927,12.3999996185
"2004-08-08 07:00:00",16.2999992371,0.00200000009499,57.0,5.59000015259,7.94999980927,4.40000009537,12.3699998856
"2004-08-08 08:00:00",16.8799991608,0.00200000009499,59.5999984741,5.76999998093,7.96000003815,3.90000009537,12.3400001526
"2004-08-08 09:00:00",17.5499992371,0.00200000009499,64.9000015259,6.19999980927,7.98999977112,3.5,12.3500003815
"2004-08-08 10:00:00",20.3899993896,0.0010000000475,65.6999969482,5.92999982834,8.01000022888,3.29999995232,12.9600000381
"2004-08-08 11:00:00",19.9500007629,0.0010000000475,62.4000015259,5.67999982834,8.0,3.20000004768,13.1899995804
"2004-08-08 12:00:00",23.4400005341,0.0,63.9000015259,5.42999982834,5.53000020981,3.20000004768,13.0900001526
"2004-08-08 13:00:00",26.1599998474,0.0,78.6999969482,6.36999988556,4.36000013351,3.0,13.029999733
"2004-08-08 14:00:00",23.9899997711,0.0,86.5999984741,7.28999996185,5.13999986649,2.79999995232,12.7600002289
"2004-08-08 15:00:00",23.2900009155,0.0,87.1999969482,7.44000005722,5.36000013351,2.70000004768,13.0399999619
"2004-08-08 16:00:00",23.4300003052,0.0,86.0999984741,7.32999992371,6.78999996185,3.0,12.720000267
"2004-08-08 17:00:00",23.0900001526,0.0,82.8000030518,7.09000015259,7.46000003815,2.79999995232,12.7100000381
"2004-08-08 18:00:00",22.7800006866,0.0,84.9000015259,7.30999994278,7.44000005722,2.79999995232,12.6400003433
"2004-08-08 19:00:00",22.1100006104,0.0,83.6999969482,7.30999994278,7.67999982834,3.0,12.5900001526
"2004-08-08 20:00:00",20.3299999237,0.0,80.0,7.23000001907,8.35999965668,3.79999995232,12.5699996948
"2004-08-08 21:00:00",19.8999996185,0.0,76.5999984741,6.98000001907,8.22999954224,4.69999980927,12.5500001907
"2004-08-08 22:00:00",19.4200000763,0.0,70.6999969482,6.5,8.28999996185,4.80000019073,12.5399999619
"2004-08-08 23:00:00",19.2099990845,0.0,65.3000030518,6.03000020981,8.17000007629,4.0,12.5200004578
"2004-08-09 00:00:00",18.8799991608,0.0,61.0,5.67000007629,7.86000013351,3.79999995232,12.5100002289
"2004-08-09 01:00:00",18.2999992371,0.0,57.5,5.42000007629,7.88000011444,4.30000019073,12.4899997711
"2004-08-09 02:00:00",18.0,0.0,56.0,5.30999994278,8.02999973297,3.79999995232,12.470000267
"2004-08-09 03:00:00",18.1800003052,0.0,57.2999992371,5.40999984741,7.98000001907,3.40000009537,12.4600000381
"2004-08-09 04:00:00",17.5900001526,0.0,62.5,5.96999979019,8.02000045776,3.70000004768,12.4399995804
"2004-08-09 05:00:00",17.3899993896,0.0,65.4000015259,6.26999998093,7.96999979019,3.40000009537,12.4300003052
"2004-08-09 06:00:00",17.3899993896,0.0,64.5,6.19000005722,7.96999979019,3.40000009537,12.3999996185
"2004-08-09 07:00:00",16.8999996185,0.0,66.9000015259,6.48000001907,7.98000001907,3.59999990463,12.3699998856
"2004-08-09 08:00:00",17.4599990845,0.0,62.2999992371,5.96999979019,7.98999977112,3.90000009537,12.3500003815
"2004-08-09 09:00:00",18.7199993134,0.0,57.2999992371,5.34999990463,7.94999980927,3.59999990463,12.3699998856
"2004-08-09 10:00:00",22.1900005341,0.0,53.5999984741,4.67000007629,7.90999984741,3.70000004768,12.9099998474
"2004-08-09 11:00:00",20.5200004578,0.0,53.0,4.76999998093,8.21000003815,3.70000004768,13.1700000763
"2004-08-09 12:00:00",22.5499992371,0.0,59.5999984741,5.15999984741,8.26000022888,4.0,13.0799999237
"2004-08-09 13:00:00",24.4599990845,0.0,70.6999969482,5.90000009537,7.38999986649,3.59999990463,13.0399999619
"2004-08-09 14:00:00",23.9799995422,0.0,76.1999969482,6.42000007629,6.59000015259,3.5,13.029999733
"2004-08-09 15:00:00",24.75,0.0,74.6999969482,6.19999980927,5.03000020981,3.40000009537,13.0
"2004-08-09 16:00:00",24.4300003052,0.0,80.5999984741,6.73000001907,4.11999988556,3.20000004768,12.9799995422
"2004-08-09 17:00:00",22.8400001526,0.0,79.9000015259,6.88000011444,7.75,4.5,12.8100004196
"2004-08-09 18:00:00",23.0400009155,0.0,78.3000030518,6.71000003815,7.61000013351,6.0,12.6599998474
"2004-08-09 19:00:00",22.6800003052,0.0,76.3000030518,6.57999992371,7.84999990463,5.09999990463,12.6099996567
"2004-08-09 20:00:00",21.9200000763,0.0,72.9000015259,6.38000011444,7.76000022888,4.40000009537,12.5900001526
"2004-08-09 21:00:00",21.2099990845,0.0,67.6999969482,6.01000022888,8.01000022888,4.0,12.5699996948